Flag for Malta Weather past 2 weeks in Valletta, Malta

Now
57 °F

Passing clouds.


Feels Like: 56 °F
Forecast: 55 / 61 °F
Wind: 6 mph from Northwest

Location: Luqa

Current Time: Dec 25, 2014 at 9:08:27 PM

Latest Report: Dec 25, 2014 at 8:45 PM


Visibility: N/A

Pressure: 30.18 "Hg

Humidity: 72%

Dew point: 48 °F

Location of VallettaLocation

Historic Weather in Valletta — Graph

°F

Valletta temperature yesterday

Maximum temperature yesterday: 63 °F (at 10:45 AM)
Minimum temperature yesterday: 54 °F (at 12:15 AM)
Average temperature yesterday: 57 °F

Past Weeks' High & Low Weather Summary

 TemperatureHumidityPressure
High68 °F (Dec 15, 1:15 PM)100% (Dec 19, 12:45 AM)30.45 "Hg (Dec 19, 12:45 AM)
Low50 °F (Dec 11, 3:15 AM)52% (Dec 12, 2:15 PM)29.92 "Hg (Dec 10, 7:15 PM)
Average59 °F74%30.19 "Hg
* Reported Dec 10 7:15 PM — Dec 25 7:45 PM, Valletta, Weather by CustomWeather, © 2014

Note: Actual official high and low records may vary slightly from our data, if they occured in-between our weather recording intervals... More about our weather records

Advertising

Valletta weather history for previous 24 hours

 ConditionsComfort  
Time TempWeatherWind HumidityBarometerVisibility
7:45 PM
Dec 25
57 °FPassing clouds.9 mph77%30.21 "HgN/A
7:15 PM57 °FPassing clouds.5 mph77%30.21 "HgN/A
6:45 PM57 °FPassing clouds.6 mph72%30.21 "HgN/A
6:15 PM57 °FPassing clouds.6 mph72%30.21 "HgN/A
5:45 PM55 °FPartly cloudy.7 mph77%30.21 "HgN/A
5:15 PM55 °FPassing clouds.7 mph77%30.21 "HgN/A
4:45 PM57 °FScattered clouds.7 mph67%30.21 "HgN/A
4:15 PM57 °FScattered clouds.9 mph67%30.21 "HgN/A
3:45 PM61 °FScattered clouds.10 mph59%30.21 "HgN/A
3:15 PM59 °FScattered clouds.13 mph59%30.21 "HgN/A
2:45 PM61 °FPassing clouds.14 mph59%30.21 "HgN/A
2:15 PM61 °FSunny.12 mph59%30.21 "Hg10 mi
1:45 PM61 °FPartly sunny.13 mph59%30.24 "HgN/A
1:15 PM63 °FPartly sunny.12 mph59%30.24 "HgN/A
12:45 PM61 °FPartly sunny.13 mph63%30.24 "HgN/A
12:15 PM61 °FPartly sunny.10 mph59%30.24 "HgN/A
11:45 AM63 °FPartly sunny.12 mph59%30.27 "HgN/A
11:15 AM63 °FScattered clouds.10 mph59%30.27 "HgN/A
10:45 AM63 °FScattered clouds.8 mph59%30.27 "HgN/A
10:15 AM61 °FScattered clouds.7 mph63%30.30 "HgN/A
9:45 AM61 °FScattered clouds.6 mph63%30.30 "HgN/A
9:15 AM59 °FPartly sunny.7 mph68%30.30 "HgN/A
8:45 AM57 °FPartly sunny.6 mph72%30.30 "HgN/A
8:15 AM55 °FPartly sunny.6 mph77%30.27 "HgN/A
7:45 AM55 °FPartly sunny.6 mph77%30.27 "HgN/A
7:15 AM55 °FPartly sunny.5 mph77%30.27 "HgN/A
6:45 AM57 °FPassing clouds.3 mph72%30.27 "HgN/A
6:15 AM57 °FPassing clouds.5 mph72%30.27 "HgN/A
5:45 AM57 °FPassing clouds.3 mph67%30.27 "HgN/A
5:15 AM55 °FOvercast.3 mph77%30.27 "HgN/A
4:45 AM55 °FOvercast.2 mph77%30.27 "HgN/A
4:15 AM57 °FOvercast.3 mph77%30.27 "HgN/A
3:45 AM55 °FOvercast.3 mph82%30.27 "HgN/A
3:15 AM55 °FOvercast.3 mph82%30.30 "HgN/A
2:45 AM55 °FMostly cloudy.3 mph82%30.30 "HgN/A
2:15 AM57 °FOvercast.5 mph72%30.30 "HgN/A
1:45 AM57 °FOvercast.5 mph72%30.30 "HgN/A
1:15 AM57 °FOvercast.3 mph72%30.30 "HgN/A
12:45 AM57 °FMostly cloudy.5 mph72%30.30 "HgN/A
12:15 AM57 °FOvercast.5 mph67%30.30 "HgN/A
11:45 PM
Dec 24
57 °FOvercast.6 mph67%30.33 "HgN/A
11:15 PM57 °FPassing clouds.6 mph72%30.33 "HgN/A
10:45 PM55 °FOvercast.5 mph72%30.33 "HgN/A
10:15 PM57 °FPassing clouds.7 mph72%30.33 "HgN/A
9:45 PM55 °FPassing clouds.6 mph77%30.33 "HgN/A
9:15 PM55 °FPassing clouds.5 mph77%30.33 "HgN/A
Weather by CustomWeather, © 2014

See weather overviewHow to use our weather pages